TimeCDT,TemperatureF,Dew PointF,Humidity,Sea Level PressureIn,VisibilityMPH,Wind Direction,Wind SpeedMPH,Gust SpeedMPH,PrecipitationIn,Events,Conditions,WindDirDegrees,DateUTC
12:52 AM,77.0,66.0,69,30.04,10.0,South,6.9,-,N/A,,Clear,170,2013-07-09 05:52:00
1:52 AM,75.0,66.0,73,30.03,10.0,South,5.8,-,N/A,,Clear,170,2013-07-09 06:52:00
1:59 AM,73.9,66.0,76,30.07,10.0,South,5.8,-,N/A,,Clear,170,2013-07-09 06:59:00
2:52 AM,73.0,66.0,79,30.03,10.0,South,5.8,-,N/A,,Clear,170,2013-07-09 07:52:00
3:52 AM,75.0,66.9,76,30.03,10.0,South,9.2,-,N/A,,Clear,170,2013-07-09 08:52:00
4:52 AM,73.0,66.9,81,30.03,10.0,South,8.1,-,N/A,,Clear,180,2013-07-09 09:52:00
5:52 AM,73.0,66.9,81,30.03,10.0,South,5.8,-,N/A,,Clear,180,2013-07-09 10:52:00
6:52 AM,73.0,68.0,84,30.04,10.0,South,6.9,-,N/A,,Clear,180,2013-07-09 11:52:00
7:52 AM,78.1,70.0,76,30.06,10.0,South,6.9,-,N/A,,Clear,190,2013-07-09 12:52:00
8:52 AM,82.0,71.1,69,30.06,10.0,SW,9.2,-,N/A,,Clear,220,2013-07-09 13:52:00
9:52 AM,84.9,70.0,61,30.06,10.0,WSW,12.7,-,N/A,,Clear,240,2013-07-09 14:52:00
10:52 AM,88.0,69.1,53,30.05,10.0,WSW,15.0,-,N/A,,Clear,250,2013-07-09 15:52:00
11:52 AM,90.0,69.1,50,30.03,10.0,SSW,13.8,19.6,N/A,,Clear,210,2013-07-09 16:52:00
12:52 PM,91.0,69.1,48,30.02,10.0,SSW,11.5,-,N/A,,Clear,210,2013-07-09 17:52:00
1:52 PM,93.0,69.1,45,30.01,10.0,SSW,16.1,-,N/A,,Partly Cloudy,210,2013-07-09 18:52:00
2:52 PM,93.0,66.9,42,29.99,10.0,SSW,12.7,-,N/A,,Partly Cloudy,200,2013-07-09 19:52:00
3:52 PM,93.9,66.9,41,29.98,10.0,SSW,12.7,20.7,N/A,,Partly Cloudy,200,2013-07-09 20:52:00
4:52 PM,93.9,66.9,41,29.96,10.0,SSW,11.5,-,N/A,,Clear,210,2013-07-09 21:52:00
5:52 PM,93.0,68.0,44,29.96,10.0,SW,10.4,-,N/A,,Partly Cloudy,220,2013-07-09 22:52:00
6:52 PM,91.9,69.1,47,29.95,10.0,SSW,11.5,-,N/A,,Clear,200,2013-07-09 23:52:00
7:52 PM,88.0,70.0,55,29.94,10.0,SSW,5.8,-,N/A,,Clear,200,2013-07-10 00:52:00
8:52 PM,84.0,70.0,63,29.93,10.0,South,9.2,-,N/A,,Clear,180,2013-07-10 01:52:00
9:52 PM,81.0,69.1,67,29.94,10.0,South,9.2,-,N/A,,Clear,180,2013-07-10 02:52:00
10:52 PM,79.0,69.1,72,29.96,10.0,South,8.1,-,N/A,,Clear,180,2013-07-10 03:52:00
11:52 PM,79.0,69.1,72,29.96,10.0,South,6.9,-,N/A,,Clear,190,2013-07-10 04:52:00